Temperature
8 8 8 9 9 9 9 9 9 9 9 9 9 9 9 9 9 9 9 9 9 9 9 9 9 9 9 9 9 9 9 9 9 10 10 10 10 10 10 10 10 10 10
8 8 8 8 8 8 8 8 8 8 8 8 8 8 8 8 8 8 8 9 9 9 9 9 9 9 9 9 9 9 9 9 9 9 9 9 9 9 9 9 9 9 9
7 7 7 7 7 7 8 8 7 7 8 8 8 8 8 8 8 8 8 8 8 8 8 8 8 8 8 8 8 8 8 8 8 8 8 8 8 8 8 8 8 8 9
7 7 7 7 7 7 7 7 7 7 7 7 7 7 7 7 7 7 7 7 7 7 7 7 7 8 8 8 8 8 8 8 7 8 8 8 8 8 8 8 8 8 8
6 6 6 6 6 6 6 6 6 6 6 6 6 6 6 6 6 6 6 6 6 6 7 7 7 7 7 7 7 7 7 7 7 7 7 7 7 7 7 7 7 7 7
6 6 6 6 6 6 6 6 5 5 5 5 5 5 5 5 5 5 6 6 6 6 6 6 6 6 6 7 7 6 6 6 6 6 6 6 6 6 6 6 6 6 6
5 5 5 5 5 5 5 5 5 5 5 5 5 4 4 4 4 4 5 5 5 5 5 5 5 5 6 6 6 6 6 5 5 5 5 5 5 6 6 6 6 6 6
4 5 5 5 4 4 4 4 4 4 4 4 4 4 3 3 3 4 4 4 4 4 4 4 5 5 5 5 5 5 5 5 5 5 5 5 5 5 5 5 5 5 5
4 4 4 4 4 4 4 4 4 4 4 4 3 3 3 3 3 3 3 3 3 3 4 4 4 4 4 4 4 4 4 4 4 4 4 4 4 4 4 4 4 4 4
3 3 3 3 3 3 3 3 3 3 3 3 3 3 3 3 2 2 2 2 3 3 3 3 3 3 3 3 3 3 3 3 3 3 3 3 3 3 3 3 3 4 4
3 3 3 3 3 3 3 3 3 3 3 3 3 3 3 3 2 2 1 2 2 2 2 2 3 3 3 3 3 3 3 3 3 3 3 3 3 3 3 3 3 3 3
2 2 2 2 2 2 2 2 2 2 2 2 2 2 2 2 2 2 2 1 1 2 2 2 2 2 2 2 2 2 2 2 2 2 2 2 2 2 2 2 2 2 2
2 2 2 2 2 2 2 2 2 2 2 2 2 2 2 2 2 2 2 1 1 1 1 1 1 1 1 1 2 2 2 2 2 2 2 2 2 2 2 2 2 2 2
1 1 1 1 1 1 1 1 1 1 1 1 1 1 1 1 1 1 1 1 0 -0 0 0 1 1 1 1 1 1 1 1 1 1 1 1 1 1 1 1 1 1 1
1 1 1 1 1 1 1 1 1 1 1 1 1 1 1 0 0 0 0 0 0 -1 -1 -0 0 0 0 0 0 0 1 1 1 1 1 0 1 1 0 0 0 1 1
0 0 0 0 0 0 0 0 -0 0 -0 -0 -0 -0 -0 -0 -0 0 -0 -0 0 -0 -1 -0 -0 0 -0 -0 -0 -0 0 0 0 0 0 0 0 -0 -0 -0 -0 0 0
-0 -0 -0 -0 -0 -0 -0 -0 -0 -0 -0 -1 -1 -1 -0 -1 -1 -1 -1 -1 -1 -1 -1 -1 -1 -1 -1 -1 -0 -0 -0 -0 -0 -0 -0 -0 -0 -1 -1 -1 -1 -1 -1
-1 -1 -1 -0 -0 -0 -1 -1 -1 -1 -1 -1 -1 -1 -1 -1 -1 -1 -1 -1 -1 -1 -1 -1 -1 -1 -1 -1 -1 -1 -1 -1 -1 -1 -1 -1 -1 -1 -1 -1 -1 -1 -1
-2 -1 -1 -1 -1 -1 -1 -1 -1 -1 -1 -1 -1 -1 -1 -1 -1 -1 -1 -1 -2 -2 -2 -2 -2 -2 -2 -2 -2 -2 -2 -2 -2 -1 -1 -2 -2 -2 -2 -2 -2 -2 -2
-2 -2 -2 -2 -2 -1 -2 -2 -2 -2 -2 -2 -2 -2 -2 -2 -2 -2 -2 -2 -2 -2 -2 -3 -3 -3 -3 -2 -3 -2 -2 -2 -2 -2 -2 -2 -2 -2 -2 -2 -2 -2 -2
-3 -3 -3 -2 -2 -2 -2 -2 -2 -2 -2 -2 -2 -2 -2 -2 -2 -2 -2 -2 -3 -3 -3 -3 -3 -3 -3 -3 -3 -3 -3 -3 -3 -3 -3 -3 -3 -3 -2 -2 -2 -2 -2
-4 -4 -3 -3 -3 -3 -3 -3 -3 -3 -3 -3 -3 -3 -3 -3 -3 -3 -3 -3 -3 -3 -3 -3 -3 -3 -3 -3 -3 -3 -4 -4 -4 -3 -3 -3 -3 -3 -3 -3 -3 -3 -3
-5 -5 -4 -4 -4 -4 -4 -4 -4 -4 -4 -3 -3 -4 -3 -3 -3 -3 -3 -4 -4 -4 -4 -4 -4 -3 -4 -4 -4 -4 -4 -4 -4 -4 -4 -4 -3 -3 -3 -4 -4 -4 -4
-6 -5 -5 -5 -5 -4 -4 -4 -4 -4 -4 -4 -4 -4 -4 -4 -4 -4 -4 -4 -4 -4 -4 -4 -4 -4 -4 -4 -4 -4 -4 -5 -5 -4 -4 -4 -4 -4 -4 -4 -4 -4 -4
-6 -6 -6 -5 -5 -5 -5 -5 -5 -5 -5 -5 -5 -5 -4 -4 -4 -5 -5 -5 -5 -5 -5 -5 -5 -5 -5 -5 -5 -5 -5 -5 -5 -5 -5 -5 -5 -5 -5 -4 -4 -4 -4
-7 -7 -6 -6 -6 -6 -6 -6 -6 -6 -6 -6 -5 -5 -5 -5 -5 -5 -5 -5 -5 -5 -5 -5 -5 -6 -6 -6 -6 -5 -5 -6 -6 -6 -6 -6 -6 -6 -6 -5 -5 -5 -5
Wind_Speed
4 5 5 6 6 7 6 6 6 7 8 9 10 10 10 11 11 11 11 14 14 13 13 13 13 13 13 13 13 13 13 13 13 12 12 11 11 10 9 9 9 8 8
5 5 5 5 6 6 6 6 6 6 6 7 7 9 9 10 10 10 10 12 13 13 12 12 12 12 12 12 12 12 12 12 12 12 11 11 10 9 8 8 8 8 8
6 6 4 4 5 6 7 6 6 6 5 6 6 7 8 9 9 9 10 10 10 11 12 12 12 11 11 10 10 10 10 10 11 10 10 10 9 9 9 8 8 8 8
7 6 4 4 6 6 5 4 4 3 3 3 3 4 6 7 7 8 10 10 10 10 11 11 11 10 10 10 10 9 9 9 9 9 10 10 9 9 9 9 9 8 8
7 6 5 4 6 5 4 4 3 3 4 3 3 3 4 4 5 7 8 9 9 10 9 9 10 10 9 9 9 8 8 8 8 8 9 9 9 9 9 8 8 8 8
6 6 5 5 6 4 3 3 3 3 3 3 3 3 3 3 5 5 5 7 8 8 9 9 9 8 8 8 8 7 7 6 7 6 6 7 7 7 7 7 7 6 6
5 6 4 4 4 4 4 4 4 4 3 2 2 2 2 2 3 3 4 5 6 6 8 8 8 8 7 7 7 6 6 6 5 5 5 5 5 5 5 5 5 4 4
5 5 5 4 3 4 4 4 5 3 2 2 2 2 1 1 1 1 2 2 3 5 5 6 7 7 6 6 5 5 5 5 4 4 4 4 4 4 4 5 5 5 4
4 5 6 5 4 4 5 5 5 4 3 2 1 3 3 2 1 0 0 1 2 2 3 4 5 4 4 4 4 4 4 4 4 4 4 4 4 4 4 4 4 5 5
4 5 6 6 4 3 4 4 4 3 5 4 2 1 1 3 3 1 1 1 1 1 1 2 2 2 2 2 3 2 3 3 3 3 3 3 3 4 4 4 5 5 5
3 4 5 5 4 3 4 4 4 4 4 5 3 1 1 1 2 2 2 2 1 1 1 1 2 2 2 1 1 1 1 2 3 3 3 3 3 4 4 5 5 5 5
2 4 5 4 4 3 4 4 5 5 5 5 4 3 3 2 3 2 2 2 2 2 2 2 2 3 3 3 2 1 1 2 3 4 3 3 3 4 5 5 6 6 6
3 4 4 4 4 4 4 4 5 5 5 5 5 4 3 3 3 2 3 2 2 2 2 2 4 4 4 4 3 3 3 4 4 5 5 4 4 5 5 6 6 6 7
4 4 5 5 5 5 5 4 4 5 5 6 6 5 4 4 3 4 4 3 2 2 2 3 2 4 4 3 4 5 4 5 6 6 6 6 5 5 6 7 7 7 7
3 4 4 5 5 6 6 5 5 5 5 5 6 5 5 4 4 3 3 4 4 3 4 4 2 3 4 5 6 5 5 7 7 7 7 7 6 6 6 7 7 7 7
3 3 4 4 5 5 6 6 5 5 6 5 5 6 5 4 4 4 4 4 4 4 4 3 3 3 5 5 7 6 7 8 8 8 9 8 8 7 7 8 8 8 8
3 4 4 4 5 5 6 6 6 6 7 6 6 7 7 6 5 5 5 4 4 4 5 3 2 2 4 4 5 6 7 7 8 9 9 9 9 9 9 9 9 9 9
3 4 4 5 5 5 5 7 7 7 7 8 8 7 8 7 7 6 6 6 5 5 5 5 3 3 4 4 4 4 5 6 7 9 9 10 10 10 10 10 10 10 10
3 3 4 5 5 5 6 7 7 7 8 8 8 9 8 8 8 7 7 7 6 5 4 5 4 3 3 3 3 4 5 5 7 8 8 9 10 10 10 10 10 10 10
3 3 4 5 5 5 6 6 7 6 7 7 7 8 8 9 9 9 8 8 7 6 5 5 4 4 3 3 3 3 4 3 4 6 8 9 10 10 10 10 10 10 10
4 4 4 4 5 5 5 5 5 6 7 7 7 8 8 10 11 10 8 8 8 7 6 6 5 4 4 4 5 4 4 3 4 4 3 6 7 8 9 10 10 11 11
4 4 3 3 4 4 6 7 6 5 6 7 7 7 8 9 11 12 12 12 11 10 9 8 7 7 8 6 4 4 4 3 4 3 3 4 5 5 7 9 11 12 12
4 4 4 4 4 5 7 7 8 5 6 6 6 6 7 8 9 8 10 12 12 14 12 9 9 9 8 7 6 6 6 5 5 4 3 5 4 5 8 10 12 12 12
4 4 4 4 4 5 7 7 7 5 5 6 6 7 8 7 8 8 8 8 8 9 11 9 8 8 7 7 8 7 6 4 4 3 4 4 4 4 6 9 11 12 11
4 4 4 4 4 5 7 7 6 3 4 5 5 5 6 7 11 11 8 8 8 7 11 13 12 10 11 10 8 4 4 4 4 4 3 3 3 3 3 4 9 11 10
5 5 5 4 4 5 7 7 6 3 4 4 4 4 7 8 10 12 8 8 8 8 6 7 8 9 8 9 10 7 6 5 4 4 3 3 2 1 3 3 4 6 7
Wind_Direction
96 95 94 94 88 85 79 74 71 69 63 59 61 62 64 68 68 69 69 69 69 70 72 76 78 79 77 76 74 72 70 68 67 68 67 65 64 66 70 70 73 75 78
103 95 89 88 85 87 85 80 73 69 66 64 60 59 61 65 67 67 70 70 70 68 69 71 75 76 77 75 74 72 70 68 65 63 64 64 62 60 64 67 68 70 74
116 108 100 93 94 95 91 88 82 77 73 67 61 61 63 64 67 66 66 69 70 69 68 68 69 71 72 74 74 74 70 68 65 62 61 62 61 62 66 66 65 65 68
125 113 105 100 107 105 97 92 91 89 80 75 65 63 66 68 71 72 70 69 70 69 68 67 68 68 68 69 71 72 70 67 64 62 62 60 58 61 65 64 63 61 65
127 119 115 112 116 107 96 103 95 105 97 87 77 68 70 70 72 77 73 70 73 74 73 70 66 66 68 69 68 67 67 68 63 59 58 57 56 57 58 61 62 59 58
133 126 121 125 123 113 113 111 110 101 109 109 91 67 58 72 72 73 79 76 74 75 76 72 67 64 64 64 65 63 64 65 59 54 52 50 52 53 55 54 55 53 47
140 130 125 129 127 132 136 134 133 119 110 114 97 67 35 60 79 72 84 87 82 79 78 74 69 67 60 60 58 56 56 56 54 48 42 41 44 45 45 42 39 37 34
149 146 140 142 142 137 142 146 143 140 148 152 143 138 120 20 16 93 94 106 95 83 77 72 69 68 62 59 54 50 45 42 37 35 39 37 36 32 30 30 26 24 22
162 158 153 148 154 155 163 164 162 157 171 195 160 146 158 191 188 329 186 126 121 104 85 84 81 72 67 62 65 48 35 28 25 23 25 24 22 22 15 14 11 7 5
171 164 156 152 156 157 163 171 168 174 167 184 202 204 167 147 161 168 299 245 131 123 126 100 98 96 95 73 75 57 26 9 3 355 350 352 355 359 3 1 359 357 356
174 169 164 158 162 165 167 169 174 183 183 183 186 188 195 159 172 171 211 231 248 231 182 162 146 165 170 147 99 111 11 343 320 323 321 326 333 338 341 341 339 337 335
194 182 179 170 168 171 177 180 181 191 197 190 186 182 175 177 187 174 196 221 229 245 242 213 198 196 191 185 191 213 261 296 294 298 303 305 313 320 322 322 320 318 317
223 203 190 185 182 191 188 188 189 196 199 195 192 196 198 206 188 177 177 218 231 249 224 225 213 203 208 196 211 223 236 261 275 283 287 290 299 305 304 303 303 305 306
228 210 199 194 190 192 197 195 202 207 202 200 200 195 201 212 196 184 185 192 206 236 226 228 226 203 212 218 230 238 238 249 258 266 273 279 285 287 289 290 291 293 297
240 212 205 200 194 193 194 193 207 210 206 207 202 201 203 205 198 189 191 190 185 212 235 221 211 207 226 233 244 241 240 246 249 255 263 269 273 273 277 280 281 284 290
247 220 211 206 202 199 195 195 205 209 207 211 207 204 209 208 199 198 204 206 200 207 234 219 227 235 236 242 243 245 242 248 248 253 257 258 259 263 267 270 273 276 281
247 226 214 211 210 207 202 199 205 207 208 213 215 210 214 208 205 208 203 202 208 205 230 248 234 221 227 237 249 247 245 242 244 250 256 251 254 256 259 264 267 269 275
253 243 221 212 215 217 210 205 207 209 210 213 215 212 217 214 210 207 201 205 210 212 215 231 235 222 229 224 238 245 254 248 244 248 253 252 251 254 258 261 265 267 271
268 259 235 217 216 222 221 217 212 211 214 218 216 214 214 210 214 209 204 205 209 215 206 216 231 228 232 223 233 251 257 254 250 247 253 256 255 257 260 262 264 265 267
277 260 250 236 229 229 230 227 219 213 215 221 222 220 217 214 214 210 208 205 202 204 204 210 222 226 225 221 216 232 254 252 249 247 253 258 262 263 265 265 265 267 269
287 275 260 249 239 233 229 227 224 218 217 220 223 225 227 226 224 221 217 204 198 203 207 212 220 227 224 213 219 225 242 257 256 238 240 254 256 257 260 261 263 268 271
290 283 268 253 246 249 245 242 242 226 221 221 226 229 230 230 232 231 230 224 213 205 206 211 217 220 222 219 214 223 230 248 256 227 228 256 243 245 250 250 262 269 271
301 285 276 263 258 260 261 251 248 238 226 226 225 226 232 227 228 221 226 230 228 227 223 218 217 220 217 210 206 216 223 238 252 227 220 249 240 247 250 257 265 270 274
296 288 272 267 269 271 275 268 261 246 235 231 228 225 222 218 217 214 213 219 223 226 231 228 221 219 221 213 210 214 220 237 262 242 217 244 243 246 254 252 261 269 273
287 283 280 267 266 275 279 277 273 246 244 240 235 231 224 215 224 221 213 213 224 232 237 236 237 237 236 232 224 202 200 215 250 249 213 226 246 260 258 246 255 265 271
284 287 286 277 264 265 275 279 277 248 248 246 242 237 237 226 226 223 213 208 217 224 221 228 231 233 233 228 223 211 199 210 228 240 213 204 224 235 265 258 243 258 267
Height
1524 1525 1527 1528 1529 1531 1532 1534 1535 1537 1538 1539 1540 1541 1542 1543 1545 1546 1547 1548 1549 1550 1552 1553 1553 1554 1555 1555 1556 1557 1557 1558 1559 1559 1560 1560 1561 1562 1562 1563 1564 1564 1565
1523 1524 1525 1526 1528 1529 1531 1532 1534 1535 1537 1538 1539 1540 1541 1542 1544 1545 1546 1547 1549 1550 1551 1552 1553 1553 1554 1555 1555 1556 1557 1557 1558 1558 1559 1559 1560 1560 1561 1562 1562 1563 1564
1521 1522 1523 1525 1526 1527 1529 1531 1533 1534 1535 1537 1538 1539 1540 1542 1543 1544 1545 1546 1547 1548 1549 1551 1552 1552 1553 1554 1554 1555 1555 1556 1556 1557 1558 1558 1559 1559 1560 1560 1561 1562 1562
1518 1520 1521 1522 1524 1526 1527 1529 1531 1532 1533 1535 1536 1538 1539 1540 1542 1543 1544 1545 1546 1547 1548 1549 1550 1551 1551 1552 1553 1553 1554 1554 1555 1555 1556 1557 1557 1558 1558 1559 1559 1560 1561
1516 1517 1518 1520 1522 1523 1525 1527 1528 1530 1532 1533 1535 1536 1538 1539 1540 1541 1542 1543 1544 1545 1546 1548 1549 1549 1550 1550 1551 1552 1552 1553 1553 1554 1554 1555 1555 1556 1556 1557 1558 1558 1559
1513 1515 1516 1518 1519 1521 1522 1524 1526 1528 1530 1531 1533 1534 1536 1537 1538 1539 1540 1541 1543 1544 1545 1546 1547 1547 1548 1549 1549 1550 1551 1551 1552 1552 1553 1553 1553 1554 1554 1555 1556 1556 1557
1510 1512 1513 1515 1516 1517 1519 1521 1523 1525 1527 1529 1531 1532 1534 1535 1536 1537 1538 1539 1540 1541 1542 1543 1544 1545 1546 1547 1547 1548 1549 1549 1549 1550 1551 1551 1551 1552 1552 1553 1554 1554 1555
1507 1508 1510 1511 1513 1514 1516 1518 1520 1522 1524 1526 1528 1529 1532 1534 1534 1535 1536 1537 1538 1539 1540 1541 1542 1542 1543 1544 1545 1546 1546 1546 1547 1547 1548 1549 1549 1549 1550 1551 1551 1551 1552
1503 1505 1506 1508 1510 1511 1512 1514 1516 1518 1520 1523 1525 1526 1528 1529 1531 1532 1533 1534 1535 1536 1537 1538 1539 1540 1541 1541 1542 1543 1543 1544 1544 1545 1545 1546 1547 1547 1547 1548 1548 1548 1549
1500 1501 1503 1504 1506 1507 1508 1510 1513 1515 1517 1518 1521 1523 1525 1525 1527 1528 1530 1531 1531 1532 1533 1535 1536 1536 1537 1538 1539 1539 1540 1541 1541 1542 1542 1543 1544 1544 1544 1544 1545 1545 1545
1496 1498 1499 1500 1502 1503 1505 1507 1508 1511 1513 1514 1516 1518 1520 1522 1523 1524 1525 1526 1527 1529 1530 1531 1532 1533 1534 1535 1536 1536 1537 1538 1538 1539 1539 1540 1540 1540 1541 1541 1541 1541 1542
1492 1494 1495 1496 1498 1499 1501 1502 1504 1506 1508 1510 1512 1514 1515 1517 1518 1519 1520 1521 1522 1524 1526 1527 1528 1529 1530 1531 1532 1533 1533 1534 1535 1535 1535 1536 1536 1536 1536 1537 1537 1537 1538
1488 1489 1490 1491 1493 1495 1497 1498 1499 1501 1503 1505 1507 1509 1511 1513 1515 1516 1517 1517 1518 1519 1521 1522 1524 1525 1526 1527 1528 1529 1529 1530 1530 1531 1531 1531 1532 1532 1532 1532 1533 1533 1533
1484 1485 1486 1487 1488 1491 1492 1493 1495 1496 1498 1500 1502 1504 1506 1508 1510 1511 1512 1514 1514 1515 1516 1517 1519 1521 1522 1523 1524 1524 1525 1525 1526 1526 1527 1527 1527 1527 1528 1528 1528 1528 1528
1479 1481 1481 1483 1484 1485 1487 1488 1490 1491 1493 1495 1497 1499 1501 1503 1505 1506 1508 1510 1511 1510 1511 1512 1514 1516 1517 1518 1519 1520 1520 1521 1521 1521 1522 1522 1522 1523 1523 1523 1523 1523 1524
1475 1476 1477 1478 1479 1480 1481 1483 1485 1486 1488 1489 1491 1493 1495 1497 1499 1501 1503 1504 1506 1506 1506 1507 1509 1511 1512 1513 1514 1515 1515 1516 1516 1516 1516 1517 1517 1517 1518 1518 1518 1518 1518
1470 1471 1472 1472 1474 1474 1476 1478 1479 1481 1482 1483 1485 1487 1489 1491 1493 1495 1497 1498 1500 1502 1501 1501 1504 1506 1507 1507 1509 1509 1510 1510 1511 1511 1511 1511 1512 1512 1512 1513 1513 1513 1513
1465 1466 1467 1467 1468 1469 1470 1472 1473 1475 1476 1477 1479 1481 1482 1484 1486 1488 1490 1492 1494 1496 1497 1496 1498 1500 1501 1502 1503 1504 1504 1505 1505 1505 1506 1506 1506 1507 1507 1507 1508 1508 1507
1460 1461 1462 1462 1463 1464 1465 1466 1468 1469 1470 1471 1472 1474 1475 1477 1479 1481 1483 1485 1487 1489 1491 1492 1492 1494 1495 1497 1497 1498 1499 1499 1500 1500 1500 1501 1501 1501 1502 1502 1502 1502 1502
1455 1456 1457 1457 1458 1458 1459 1460 1461 1462 1463 1465 1466 1467 1469 1470 1472 1474 1476 1478 1481 1483 1485 1486 1487 1488 1489 1491 1492 1492 1493 1494 1494 1495 1495 1496 1496 1496 1496 1496 1496 1496 1496
1450 1451 1451 1452 1452 1453 1454 1455 1455 1456 1457 1458 1460 1461 1462 1464 1465 1467 1469 1471 1474 1476 1478 1479 1480 1482 1483 1484 1485 1486 1487 1488 1488 1489 1489 1490 1490 1490 1490 1490 1491 1491 1490
1446 1446 1446 1446 1447 1447 1448 1449 1450 1450 1451 1452 1453 1454 1455 1457 1459 1460 1462 1465 1467 1469 1471 1473 1474 1475 1476 1478 1480 1481 1482 1482 1482 1484 1484 1484 1485 1484 1484 1485 1485 1485 1485
1441 1441 1441 1441 1442 1442 1443 1444 1444 1445 1445 1446 1446 1447 1448 1450 1452 1453 1455 1458 1460 1463 1465 1467 1467 1468 1470 1472 1474 1475 1476 1476 1476 1477 1478 1477 1479 1478 1479 1479 1480 1480 1480
1437 1436 1436 1436 1437 1437 1438 1438 1439 1439 1440 1440 1440 1441 1442 1444 1445 1447 1449 1451 1453 1456 1458 1460 1461 1462 1465 1466 1468 1469 1470 1471 1472 1472 1473 1472 1471 1472 1473 1474 1475 1475 1474
1433 1432 1431 1432 1432 1432 1433 1433 1434 1434 1434 1434 1435 1436 1437 1438 1440 1442 1443 1445 1447 1449 1452 1454 1456 1457 1459 1460 1462 1463 1464 1465 1464 1465 1467 1467 1466 1466 1467 1468 1469 1469 1469
1429 1428 1427 1427 1427 1427 1428 1428 1429 1429 1429 1429 1430 1430 1431 1433 1434 1436 1438 1439 1440 1442 1445 1447 1449 1451 1452 1454 1455 1456 1458 1459 1458 1459 1460 1462 1461 1462 1461 1461 1463 1463 1463